EN

Hourly Weather Abasár

Today, 13 June, Sunday

Time Temperature Precipitation Wind Pressure Humidity
00:00 +18°C° 0.6 mm 4 mps 738 mmHg 91%
01:00 +17°C° 0.6 mm 4 mps 738 mmHg 93%
02:00 +17°C° 0.1 mm 4 mps 738 mmHg 92%
03:00 +15°C° 0.1 mm 4 mps 738 mmHg 91%
04:00 +14°C° 0.1 mm 5 mps 738 mmHg 90%
05:00 +15°C° 0 mm 5 mps 739 mmHg 84%
06:00 +15°C° 0 mm 5 mps 740 mmHg 79%
07:00 +16°C° 0 mm 5 mps 740 mmHg 73%
08:00 +17°C° 0 mm 5 mps 741 mmHg 65%
09:00 +19°C° 0 mm 5 mps 741 mmHg 57%
10:00 +20°C° 0 mm 6 mps 741 mmHg 49%
11:00 +21°C° 0 mm 6 mps 741 mmHg 46%
12:00 +21°C° 0 mm 6 mps 742 mmHg 43%
13:00 +21°C° 0 mm 6 mps 742 mmHg 40%
14:00 +21°C° 0 mm 6 mps 742 mmHg 42%
15:00 +21°C° 0 mm 6 mps 742 mmHg 43%
16:00 +21°C° 0 mm 5 mps 742 mmHg 45%
17:00 +19°C° 0 mm 5 mps 742 mmHg 50%
18:00 +17°C° 0 mm 4 mps 743 mmHg 55%
19:00 +14°C° 0 mm 3 mps 743 mmHg 61%
20:00 +14°C° 0 mm 2 mps 743 mmHg 63%
21:00 +12°C° 0 mm 2 mps 744 mmHg 66%
22:00 +11°C° 0 mm 1 mps 744 mmHg 69%
23:00 +9°C° 0 mm 2 mps 744 mmHg 71%

Tomorrow, 14 June, Monday

Time Temperature Precipitation Wind Pressure Humidity
00:00 +9°C° 0 mm 2 mps 744 mmHg 73%
01:00 +8°C° 0 mm 2 mps 744 mmHg 75%
02:00 +8°C° 0 mm 2 mps 744 mmHg 76%
03:00 +8°C° 0 mm 2 mps 744 mmHg 77%
04:00 +8°C° 0 mm 2 mps 744 mmHg 78%
05:00 +10°C° 0 mm 2 mps 744 mmHg 73%
06:00 +13°C° 0 mm 2 mps 744 mmHg 67%
07:00 +15°C° 0 mm 2 mps 745 mmHg 62%
08:00 +16°C° 0 mm 1 mps 745 mmHg 57%
09:00 +19°C° 0 mm 1 mps 745 mmHg 52%
10:00 +20°C° 0 mm 1 mps 745 mmHg 48%
11:00 +20°C° 0 mm 1 mps 744 mmHg 49%
12:00 +19°C° 0 mm 2 mps 744 mmHg 51%
13:00 +19°C° 0 mm 2 mps 744 mmHg 52%
14:00 +19°C° 0 mm 2 mps 744 mmHg 53%
15:00 +19°C° 0 mm 2 mps 743 mmHg 55%
16:00 +20°C° 0 mm 1 mps 743 mmHg 56%
17:00 +19°C° 0 mm 1 mps 743 mmHg 60%
18:00 +18°C° 0 mm 1 mps 743 mmHg 64%
19:00 +16°C° 0 mm 1 mps 743 mmHg 68%
20:00 +16°C° 0 mm 1 mps 743 mmHg 68%
21:00 +15°C° 0 mm 1 mps 744 mmHg 67%
22:00 +15°C° 0 mm 1 mps 744 mmHg 66%
23:00 +14°C° 0 mm 1 mps 744 mmHg 69%

Day after tomorrow, 15 June, Tuesday

Time Temperature Precipitation Wind Pressure Humidity
00:00 +13°C° 0 mm 1 mps 744 mmHg 72%
01:00 +12°C° 0 mm 1 mps 744 mmHg 75%
02:00 +12°C° 0 mm 1 mps 744 mmHg 77%
03:00 +11°C° 0 mm 1 mps 744 mmHg 78%
04:00 +10°C° 0 mm 2 mps 744 mmHg 80%
05:00 +13°C° 0 mm 2 mps 744 mmHg 74%
06:00 +15°C° 0 mm 1 mps 744 mmHg 68%
07:00 +18°C° 0 mm 1 mps 744 mmHg 62%
08:00 +19°C° 0 mm 2 mps 744 mmHg 57%
09:00 +20°C° 0 mm 2 mps 744 mmHg 52%
10:00 +23°C° 0 mm 2 mps 744 mmHg 47%
11:00 +23°C° 0 mm 2 mps 744 mmHg 46%
12:00 +24°C° 0 mm 2 mps 744 mmHg 44%
13:00 +25°C° 0 mm 2 mps 743 mmHg 43%
14:00 +25°C° 0 mm 2 mps 743 mmHg 46%
15:00 +25°C° 0 mm 2 mps 743 mmHg 48%
16:00 +24°C° 0 mm 2 mps 742 mmHg 50%
17:00 +23°C° 0 mm 2 mps 742 mmHg 58%
18:00 +20°C° 0 mm 2 mps 742 mmHg 66%
19:00 +20°C° 0 mm 1 mps 742 mmHg 74%
20:00 +19°C° 0 mm 1 mps 742 mmHg 74%
21:00 +18°C° 0 mm 1 mps 742 mmHg 74%
22:00 +18°C° 0 mm 1 mps 742 mmHg 75%
23:00 +16°C° 0 mm 1 mps 742 mmHg 74%

16 June, Wednesday

Time Temperature Precipitation Wind Pressure Humidity
00:00 +16°C° 0 mm 1 mps 742 mmHg 74%
01:00 +16°C° 0 mm 1 mps 742 mmHg 74%
02:00 +15°C° 0 mm 1 mps 742 mmHg 76%
03:00 +15°C° 0 mm 1 mps 742 mmHg 78%
04:00 +15°C° 0 mm 1 mps 742 mmHg 80%
05:00 +16°C° 0 mm 1 mps 743 mmHg 75%
06:00 +19°C° 0 mm 1 mps 743 mmHg 71%
07:00 +21°C° 0 mm 1 mps 743 mmHg 66%
08:00 +22°C° 0 mm 1 mps 743 mmHg 60%
09:00 +24°C° 0 mm 1 mps 743 mmHg 54%
10:00 +25°C° 0 mm 1 mps 743 mmHg 48%
11:00 +26°C° 0 mm 1 mps 743 mmHg 47%
12:00 +27°C° 0 mm 1 mps 743 mmHg 45%
13:00 +27°C° 0 mm 1 mps 743 mmHg 44%
14:00 +27°C° 0 mm 1 mps 743 mmHg 46%
15:00 +27°C° 0 mm 1 mps 743 mmHg 49%
16:00 +27°C° 0 mm 1 mps 743 mmHg 52%
17:00 +25°C° 0 mm 1 mps 742 mmHg 58%
18:00 +24°C° 0 mm 1 mps 742 mmHg 64%
19:00 +21°C° 0 mm 0 mps 742 mmHg 70%
20:00 +21°C° 0 mm 1 mps 743 mmHg 74%
21:00 +20°C° 0 mm 1 mps 743 mmHg 78%
22:00 +18°C° 0 mm 2 mps 743 mmHg 81%
23:00 +19°C° 0 mm 1 mps 743 mmHg 83%

17 June, Thursday

Time Temperature Precipitation Wind Pressure Humidity
00:00 +18°C° 0 mm 1 mps 743 mmHg 84%
01:00 +18°C° 0 mm 1 mps 743 mmHg 86%
02:00 +16°C° 0 mm 1 mps 743 mmHg 86%
03:00 +16°C° 0 mm 1 mps 743 mmHg 86%
04:00 +16°C° 0 mm 1 mps 743 mmHg 86%
05:00 +19°C° 0 mm 1 mps 743 mmHg 80%
06:00 +20°C° 0 mm 1 mps 743 mmHg 75%
07:00 +22°C° 0 mm 1 mps 744 mmHg 69%
08:00 +23°C° 0 mm 1 mps 744 mmHg 64%
09:00 +25°C° 0 mm 1 mps 744 mmHg 60%
10:00 +26°C° 0 mm 1 mps 744 mmHg 55%
11:00 +27°C° 0 mm 1 mps 744 mmHg 54%
12:00 +27°C° 0 mm 1 mps 744 mmHg 53%
13:00 +28°C° 0 mm 1 mps 743 mmHg 52%
14:00 +28°C° 0 mm 1 mps 743 mmHg 51%
15:00 +28°C° 0 mm 1 mps 743 mmHg 51%
16:00 +28°C° 0 mm 1 mps 743 mmHg 51%
17:00 +27°C° 0 mm 1 mps 743 mmHg 58%
18:00 +25°C° 0 mm 1 mps 743 mmHg 64%
19:00 +24°C° 0 mm 1 mps 743 mmHg 71%
20:00 +23°C° 0 mm 1 mps 743 mmHg 73%
21:00 +22°C° 0 mm 1 mps 743 mmHg 75%
22:00 +20°C° 0 mm 1 mps 743 mmHg 77%
23:00 +20°C° 0 mm 1 mps 743 mmHg 79%

18 June, Friday

Time Temperature Precipitation Wind Pressure Humidity
00:00 +19°C° 0 mm 1 mps 743 mmHg 80%
01:00 +19°C° 0 mm 1 mps 743 mmHg 82%
02:00 +19°C° 0 mm 1 mps 743 mmHg 83%
03:00 +18°C° 0 mm 1 mps 743 mmHg 84%
04:00 +18°C° 0 mm 1 mps 743 mmHg 85%
05:00 +20°C° 0 mm 1 mps 743 mmHg 79%
06:00 +21°C° 0 mm 1 mps 743 mmHg 73%
07:00 +23°C° 0 mm 1 mps 743 mmHg 67%
08:00 +25°C° 0 mm 1 mps 743 mmHg 63%
09:00 +26°C° 0 mm 1 mps 743 mmHg 58%
10:00 +28°C° 0 mm 1 mps 743 mmHg 54%
11:00 +28°C° 0 mm 2 mps 743 mmHg 52%
12:00 +29°C° 0 mm 2 mps 743 mmHg 50%
13:00 +30°C° 0 mm 2 mps 742 mmHg 48%
14:00 +29°C° 0 mm 2 mps 742 mmHg 49%
15:00 +29°C° 0 mm 2 mps 742 mmHg 50%
16:00 +29°C° 0 mm 2 mps 742 mmHg 51%
17:00 +28°C° 0 mm 1 mps 742 mmHg 57%
18:00 +26°C° 0 mm 1 mps 741 mmHg 64%
19:00 +25°C° 0 mm 1 mps 741 mmHg 70%
20:00 +24°C° 0 mm 1 mps 741 mmHg 72%
21:00 +23°C° 0 mm 1 mps 742 mmHg 74%
22:00 +22°C° 0 mm 1 mps 742 mmHg 76%
23:00 +21°C° 0 mm 1 mps 742 mmHg 78%
Show more